| time (UTC) | temp F | wind direction | speed MPH | gust MPH | rain 1hr in | rain 24hr in | rain mn in | humidity % | barometer mb |
| 20260903220306 | 68 | 113 | 1.0 | 9.0 | 0.00 | 0.06 | 0.00 | 90 | 1013.7 |
| 20260903214734 | 68 | 141 | 1.0 | 11.0 | 0.00 | 0.06 | 0.06 | 90 | 1013.7 |
| 20260903214236 | 68 | 99 | 1.0 | 9.0 | 0.00 | 0.06 | 0.06 | 90 | 1013.8 |
| 20260903213710 | 68 | 87 | 0.0 | 7.0 | 0.00 | 0.06 | 0.06 | 90 | 1014.0 |
| 20260903213215 | 68 | 75 | 0.0 | 3.0 | 0.00 | 0.06 | 0.06 | 90 | 1014.0 |
| 20260903212211 | 68 | 193 | 0.0 | 8.0 | 0.00 | 0.06 | 0.06 | 90 | 1014.2 |
| 20260903211712 | 68 | 115 | 0.0 | 7.0 | 0.00 | 0.06 | 0.06 | 90 | 1014.1 |
| 20260903211208 | 68 | 275 | 1.0 | 7.0 | 0.00 | 0.06 | 0.06 | 90 | 1014.3 |
| 20260903210710 | 68 | 91 | 0.0 | 8.0 | 0.00 | 0.06 | 0.06 | 90 | 1014.4 |
| 20260903210218 | 68 | 84 | 1.0 | 8.0 | 0.00 | 0.07 | 0.06 | 90 | 1014.4 |
| 20260903205716 | 68 | 83 | 0.0 | 6.0 | 0.00 | 0.07 | 0.06 | 90 | 1014.5 |
| 20260903205207 | 68 | 82 | 1.0 | 6.0 | 0.00 | 0.08 | 0.06 | 90 | 1014.6 |
| 20260903204209 | 68 | 105 | 1.0 | 8.0 | 0.00 | 0.08 | 0.06 | 90 | 1014.5 |
| 20260903203709 | 68 | 91 | 1.0 | 8.0 | 0.00 | 0.08 | 0.06 | 90 | 1014.6 |
| 20260903203209 | 68 | 110 | 0.0 | 7.0 | 0.00 | 0.08 | 0.06 | 90 | 1014.6 |
| 20260903202705 | 68 | 96 | 1.0 | 6.0 | 0.00 | 0.08 | 0.06 | 90 | 1014.6 |
| 20260903201632 | 68 | 120 | 0.0 | 7.0 | 0.00 | 0.08 | 0.06 | 90 | 1014.7 |
| 20260903201112 | 68 | 100 | 0.0 | 6.0 | 0.00 | 0.08 | 0.06 | 90 | 1014.8 |
| 20260903200609 | 68 | 120 | 0.0 | 6.0 | 0.00 | 0.08 | 0.06 | 90 | 1014.8 |
| 20260903200109 | 68 | 113 | 0.0 | 1.0 | 0.00 | 0.08 | 0.06 | 90 | 1014.8 |
| 20260903195617 | 68 | 293 | 0.0 | 6.0 | 0.00 | 0.08 | 0.06 | 90 | 1014.7 |
| 20260903195113 | 68 | 99 | 1.0 | 6.0 | 0.00 | 0.08 | 0.06 | 90 | 1014.7 |
| 20260903194611 | 68 | 240 | 0.0 | 5.0 | 0.00 | 0.08 | 0.06 | 90 | 1014.8 |
| 20260903194121 | 68 | 94 | 0.0 | 5.0 | 0.00 | 0.09 | 0.06 | 90 | 1014.8 |
| 20260903193621 | 68 | 283 | 0.0 | 2.0 | 0.00 | 0.09 | 0.06 | 90 | 1014.9 |
| 20260903193106 | 68 | 196 | 0.0 | 0.0 | 0.00 | 0.09 | 0.06 | 90 | 1015.1 |
| 20260903192621 | 68 | 348 | 0.0 | 3.0 | 0.00 | 0.09 | 0.06 | 90 | 1015.1 |
| 20260903192035 | 68 | 264 | 0.0 | 3.0 | 0.00 | 0.09 | 0.06 | 89 | 1015.2 |
| 20260903191606 | 68 | 85 | 0.0 | 3.0 | 0.00 | 0.09 | 0.06 | 89 | 1015.2 |
| 20260903191111 | 68 | 158 | 0.0 | 3.0 | 0.00 | 0.09 | 0.06 | 89 | 1015.3 |
| 20260903190532 | 68 | 311 | 0.0 | 0.0 | 0.00 | 0.09 | 0.06 | 89 | 1015.5 |
| 20260903190022 | 68 | 164 | 0.0 | 0.0 | 0.00 | 0.09 | 0.06 | 89 | 1015.5 |
| 20260903185522 | 68 | 198 | 0.0 | 1.0 | 0.00 | 0.09 | 0.06 | 89 | 1015.3 |
| 20260903185024 | 68 | 173 | 0.0 | 1.0 | 0.00 | 0.09 | 0.06 | 88 | 1015.2 |
| 20260903184434 | 68 | 98 | 0.0 | 2.0 | 0.00 | 0.09 | 0.06 | 88 | 1015.2 |
| 20260903183412 | 68 | 257 | 0.0 | 1.0 | 0.00 | 0.09 | 0.06 | 87 | 1015.1 |
| 20260903182916 | 68 | 247 | 0.0 | 1.0 | 0.00 | 0.09 | 0.06 | 87 | 1015.1 |
| 20260903182416 | 68 | 283 | 0.0 | 3.0 | 0.00 | 0.09 | 0.06 | 87 | 1015.2 |
| 20260903181911 | 68 | 205 | 0.0 | 3.0 | 0.00 | 0.09 | 0.06 | 87 | 1015.2 |
| 20260903180917 | 68 | 280 | 0.0 | 1.0 | 0.00 | 0.09 | 0.06 | 86 | 1015.2 |
| 20260903180409 | 69 | 88 | 0.0 | 1.0 | 0.00 | 0.09 | 0.06 | 86 | 1015.4 |
| 20260903175414 | 69 | 159 | 0.0 | 3.0 | 0.00 | 0.09 | 0.06 | 85 | 1015.5 |
| 20260903174908 | 69 | 169 | 0.0 | 1.0 | 0.00 | 0.09 | 0.06 | 85 | 1015.0 |
| 20260903173834 | 69 | 188 | 0.0 | 7.0 | 0.00 | 0.09 | 0.06 | 85 | 1015.3 |
| 20260903173311 | 69 | 172 | 1.0 | 3.0 | 0.00 | 0.09 | 0.06 | 85 | 1015.5 |
| 20260903172811 | 69 | 256 | 1.0 | 8.0 | 0.00 | 0.09 | 0.06 | 85 | 1015.5 |
| 20260903172306 | 69 | 183 | 0.0 | 8.0 | 0.00 | 0.09 | 0.06 | 86 | 1015.6 |
| 20260903171805 | 69 | 210 | 1.0 | 1.0 | 0.00 | 0.09 | 0.06 | 86 | 1015.6 |
| 20260903171247 | 69 | 297 | 1.0 | 8.0 | 0.00 | 0.09 | 0.06 | 86 | 1015.5 |
| 20260903170735 | 69 | 172 | 0.0 | 8.0 | 0.00 | 0.09 | 0.06 | 86 | 1015.5 |
| 20260903170235 | 69 | 217 | 0.0 | 4.0 | 0.00 | 0.09 | 0.06 | 86 | 1015.4 |
| 20260903165214 | 69 | 137 | 1.0 | 9.0 | 0.00 | 0.09 | 0.06 | 86 | 1015.4 |
| 20260903164711 | 70 | 213 | 1.0 | 9.0 | 0.00 | 0.09 | 0.06 | 85 | 1015.4 |
| 20260903164206 | 70 | 200 | 1.0 | 9.0 | 0.00 | 0.09 | 0.06 | 85 | 1015.2 |
| 20260903163656 | 70 | 256 | 1.0 | 7.0 | 0.00 | 0.09 | 0.06 | 85 | 1015.2 |
| 20260903163135 | 70 | 220 | 0.0 | 8.0 | 0.00 | 0.09 | 0.06 | 85 | 1015.2 |
| 20260903162634 | 70 | 340 | 1.0 | 8.0 | 0.00 | 0.09 | 0.06 | 85 | 1015.4 |
| 20260903162135 | 70 | 208 | 1.0 | 0.0 | 0.00 | 0.09 | 0.06 | 84 | 1015.5 |
| 20260903161636 | 71 | 259 | 1.0 | 7.0 | 0.00 | 0.09 | 0.06 | 84 | 1015.4 |
| 20260903161134 | 70 | 335 | 1.0 | 7.0 | 0.00 | 0.09 | 0.06 | 84 | 1015.5 |
| 20260903160619 | 70 | 209 | 1.0 | 7.0 | 0.00 | 0.09 | 0.06 | 83 | 1015.8 |
| 20260903160109 | 70 | 158 | 1.0 | 7.0 | 0.00 | 0.09 | 0.06 | 83 | 1015.6 |
| 20260903155612 | 70 | 177 | 1.0 | 10.0 | 0.00 | 0.09 | 0.06 | 83 | 1015.4 |
| 20260903155111 | 70 | 233 | 1.0 | 10.0 | 0.00 | 0.09 | 0.06 | 84 | 1015.5 |
| 20260903154609 | 70 | 301 | 1.0 | 10.0 | 0.00 | 0.09 | 0.06 | 84 | 1015.5 |
| 20260903154113 | 70 | 236 | 1.0 | 10.0 | 0.00 | 0.09 | 0.06 | 83 | 1015.5 |
| 20260903153621 | 71 | 186 | 0.0 | 5.0 | 0.00 | 0.09 | 0.06 | 80 | 1015.4 |
| 20260903153042 | 71 | 270 | 1.0 | 5.0 | 0.00 | 0.09 | 0.06 | 80 | 1015.5 |
| 20260903152546 | 71 | 217 | 1.0 | 8.0 | 0.00 | 0.09 | 0.06 | 80 | 1015.4 |
| 20260903152035 | 71 | 141 | 1.0 | 8.0 | 0.00 | 0.09 | 0.06 | 80 | 1015.4 |
| 20260903151541 | 71 | 3 | 1.0 | 8.0 | 0.00 | 0.09 | 0.06 | 80 | 1015.5 |
| 20260903151035 | 71 | 210 | 2.0 | 8.0 | 0.00 | 0.09 | 0.06 | 80 | 1015.4 |
| 20260903150023 | 71 | 115 | 2.0 | 9.0 | 0.00 | 0.09 | 0.06 | 80 | 1015.6 |
| 20260903145520 | 71 | 143 | 1.0 | 9.0 | 0.00 | 0.09 | 0.06 | 80 | 1015.7 |
| 20260903145018 | 71 | 111 | 0.0 | 9.0 | 0.00 | 0.09 | 0.06 | 79 | 1015.6 |
| 20260903144514 | 71 | 115 | 1.0 | 9.0 | 0.00 | 0.09 | 0.06 | 78 | 1015.4 |
| 20260903144025 | 72 | 227 | 1.0 | 9.0 | 0.00 | 0.09 | 0.06 | 79 | 1015.4 |
| 20260903143522 | 72 | 229 | 1.0 | 9.0 | 0.00 | 0.09 | 0.06 | 79 | 1015.3 |
| 20260903143015 | 72 | 160 | 2.0 | 6.0 | 0.00 | 0.09 | 0.06 | 80 | 1015.3 |
| 20260903142504 | 71 | 301 | 2.0 | 10.0 | 0.00 | 0.09 | 0.06 | 80 | 1015.3 |
| 20260903141934 | 71 | 266 | 0.0 | 7.0 | 0.00 | 0.09 | 0.06 | 83 | 1015.4 |
| 20260903141434 | 71 | 228 | 0.0 | 7.0 | 0.00 | 0.09 | 0.06 | 83 | 1015.3 |
| 20260903140943 | 70 | 321 | 1.0 | 7.0 | 0.00 | 0.09 | 0.06 | 84 | 1015.5 |
| 20260903140433 | 70 | 250 | 1.0 | 5.0 | 0.00 | 0.09 | 0.06 | 84 | 1015.5 |
| 20260903135439 | 70 | 200 | 1.0 | 7.0 | 0.00 | 0.09 | 0.06 | 84 | 1015.4 |
| 20260903134934 | 70 | 223 | 1.0 | 6.0 | 0.00 | 0.09 | 0.06 | 83 | 1015.3 |
| 20260903134435 | 70 | 4 | 1.0 | 11.0 | 0.00 | 0.09 | 0.06 | 83 | 1015.3 |
| 20260903133935 | 71 | 179 | 1.0 | 11.0 | 0.00 | 0.09 | 0.06 | 83 | 1015.4 |
| 20260903133410 | 71 | 184 | 1.0 | 1.0 | 0.00 | 0.09 | 0.06 | 82 | 1015.3 |
| 20260903132909 | 71 | 217 | 1.0 | 8.0 | 0.00 | 0.09 | 0.06 | 82 | 1015.4 |
| 20260903132413 | 71 | 141 | 2.0 | 8.0 | 0.00 | 0.09 | 0.06 | 82 | 1015.3 |
| 20260903131914 | 71 | 207 | 2.0 | 11.0 | 0.00 | 0.09 | 0.06 | 81 | 1015.0 |
| 20260903131411 | 71 | 44 | 2.0 | 11.0 | 0.00 | 0.09 | 0.06 | 80 | 1015.0 |
| 20260903130906 | 71 | 135 | 2.0 | 11.0 | 0.00 | 0.09 | 0.06 | 79 | 1014.9 |
| 20260903130407 | 72 | 210 | 2.0 | 11.0 | 0.00 | 0.09 | 0.06 | 77 | 1015.2 |
| 20260903125838 | 72 | 175 | 2.0 | 16.0 | 0.00 | 0.09 | 0.06 | 77 | 1015.1 |
| 20260903125335 | 71 | 111 | 3.0 | 16.0 | 0.00 | 0.09 | 0.06 | 79 | 1015.1 |
| 20260903124838 | 71 | 160 | 3.0 | 16.0 | 0.00 | 0.09 | 0.06 | 81 | 1015.1 |
| 20260903123311 | 71 | 119 | 3.0 | 6.0 | 0.00 | 0.09 | 0.06 | 79 | 1015.0 |
| 20260903122813 | 71 | 190 | 3.0 | 14.0 | 0.00 | 0.09 | 0.06 | 80 | 1014.8 |
| 20260903122314 | 71 | 231 | 3.0 | 14.0 | 0.00 | 0.09 | 0.06 | 82 | 1014.8 |
| 20260903121811 | 70 | 103 | 3.0 | 14.0 | 0.00 | 0.09 | 0.06 | 81 | 1014.9 |
| 20260903121356 | 70 | 110 | 2.0 | 14.0 | 0.00 | 0.09 | 0.06 | 82 | 1014.9 |
| 20260903120815 | 70 | 165 | 2.0 | 12.0 | 0.00 | 0.09 | 0.06 | 83 | 1015.0 |
| 20260903120331 | 70 | 189 | 3.0 | 12.0 | 0.00 | 0.09 | 0.06 | 82 | 1014.9 |
| 20260903115424 | 70 | 102 | 2.0 | 12.0 | 0.00 | 0.09 | 0.06 | 83 | 1015.0 |
| 20260903114315 | 70 | 153 | 2.0 | 12.0 | 0.00 | 0.09 | 0.06 | 84 | 1014.8 |
| 20260903113830 | 69 | 125 | 2.0 | 12.0 | 0.00 | 0.09 | 0.06 | 85 | 1014.8 |
| 20260903113309 | 69 | 129 | 2.0 | 9.0 | 0.00 | 0.09 | 0.06 | 85 | 1014.8 |
| 20260903112811 | 69 | 123 | 2.0 | 9.0 | 0.00 | 0.09 | 0.06 | 85 | 1014.7 |
| 20260903112306 | 69 | 129 | 2.0 | 15.0 | 0.00 | 0.09 | 0.06 | 84 | 1014.6 |
| 20260903111812 | 70 | 122 | 2.0 | 15.0 | 0.00 | 0.09 | 0.06 | 84 | 1014.5 |
| 20260903111310 | 69 | 191 | 3.0 | 19.0 | 0.00 | 0.09 | 0.06 | 84 | 1014.4 |
| 20260903110821 | 69 | 66 | 4.0 | 19.0 | 0.00 | 0.09 | 0.06 | 85 | 1014.5 |
| 20260903110314 | 69 | 113 | 3.0 | 19.0 | 0.00 | 0.09 | 0.06 | 83 | 1014.5 |
| 20260903105737 | 69 | 103 | 3.0 | 19.0 | 0.00 | 0.09 | 0.06 | 83 | 1014.5 |
| 20260903105233 | 70 | 11 | 2.0 | 14.0 | 0.00 | 0.09 | 0.06 | 83 | 1014.5 |
| 20260903104235 | 69 | 118 | 2.0 | 13.0 | 0.00 | 0.09 | 0.06 | 84 | 1014.5 |
| 20260903103709 | 69 | 133 | 2.0 | 13.0 | 0.00 | 0.09 | 0.06 | 83 | 1014.5 |
| 20260903103211 | 70 | 81 | 2.0 | 8.0 | 0.00 | 0.09 | 0.06 | 84 | 1014.4 |
| 20260903102709 | 70 | 297 | 3.0 | 14.0 | 0.00 | 0.09 | 0.06 | 84 | 1014.3 |
| 20260903102208 | 70 | 108 | 3.0 | 14.0 | 0.00 | 0.09 | 0.06 | 83 | 1014.4 |
| 20260903101709 | 70 | 140 | 2.0 | 8.0 | 0.00 | 0.09 | 0.06 | 83 | 1014.5 |
| 20260903101137 | 70 | 104 | 2.0 | 15.0 | 0.00 | 0.09 | 0.06 | 84 | 1014.3 |
| 20260903100139 | 70 | 92 | 3.0 | 12.0 | 0.00 | 0.09 | 0.06 | 83 | 1014.2 |
| 20260903095639 | 70 | 127 | 2.0 | 11.0 | 0.00 | 0.09 | 0.06 | 84 | 1014.2 |
| 20260903094615 | 69 | 190 | 3.0 | 13.0 | 0.00 | 0.09 | 0.06 | 84 | 1014.2 |
| 20260903093611 | 69 | 147 | 2.0 | 12.0 | 0.00 | 0.09 | 0.06 | 86 | 1014.3 |
| 20260903093108 | 69 | 85 | 2.0 | 10.0 | 0.00 | 0.09 | 0.06 | 86 | 1014.3 |
| 20260903092610 | 69 | 136 | 3.0 | 10.0 | 0.00 | 0.09 | 0.06 | 86 | 1014.2 |
| 20260903091611 | 69 | 209 | 3.0 | 12.0 | 0.00 | 0.09 | 0.06 | 86 | 1014.0 |
| 20260903091108 | 69 | 342 | 3.0 | 11.0 | 0.00 | 0.09 | 0.06 | 84 | 1014.1 |
| 20260903090609 | 70 | 169 | 2.0 | 11.0 | 0.00 | 0.09 | 0.06 | 84 | 1014.0 |
| 20260903090111 | 70 | 17 | 2.0 | 6.0 | 0.00 | 0.09 | 0.06 | 85 | 1014.0 |
| 20260903085609 | 69 | 86 | 3.0 | 12.0 | 0.00 | 0.09 | 0.06 | 85 | 1013.9 |
| 20260903085109 | 69 | 252 | 2.0 | 12.0 | 0.00 | 0.09 | 0.06 | 86 | 1013.8 |
| 20260903084605 | 69 | 122 | 2.0 | 11.0 | 0.00 | 0.09 | 0.06 | 86 | 1014.0 |
| 20260903084112 | 69 | 203 | 2.0 | 10.0 | 0.00 | 0.09 | 0.06 | 86 | 1013.8 |
| 20260903083537 | 68 | 253 | 2.0 | 3.0 | 0.00 | 0.09 | 0.06 | 86 | 1013.9 |
| 20260903083040 | 68 | 174 | 2.0 | 10.0 | 0.00 | 0.09 | 0.06 | 86 | 1013.7 |
| 20260903082535 | 68 | 121 | 1.0 | 9.0 | 0.00 | 0.09 | 0.06 | 86 | 1013.7 |
| 20260903082048 | 68 | 124 | 1.0 | 8.0 | 0.00 | 0.09 | 0.06 | 87 | 1013.7 |
| 20260903081528 | 68 | 93 | 1.0 | 8.0 | 0.00 | 0.09 | 0.06 | 87 | 1013.7 |
| 20260903080532 | 68 | 117 | 1.0 | 6.0 | 0.00 | 0.09 | 0.06 | 88 | 1013.6 |
| 20260903080019 | 68 | 143 | 1.0 | 5.0 | 0.00 | 0.09 | 0.06 | 88 | 1013.5 |
| 20260903075027 | 68 | 157 | 1.0 | 9.0 | 0.00 | 0.09 | 0.06 | 88 | 1013.5 |
| 20260903074524 | 68 | 133 | 1.0 | 9.0 | 0.00 | 0.09 | 0.06 | 89 | 1013.6 |
| 20260903073519 | 67 | 117 | 1.0 | 10.0 | 0.00 | 0.09 | 0.06 | 89 | 1013.5 |
| 20260903073027 | 67 | 121 | 1.0 | 10.0 | 0.00 | 0.09 | 0.06 | 89 | 1013.4 |
| 20260903071510 | 67 | 120 | 0.0 | 1.0 | 0.00 | 0.09 | 0.06 | 90 | 1013.6 |
| 20260903070935 | 67 | 149 | 0.0 | 1.0 | 0.00 | 0.09 | 0.06 | 90 | 1013.5 |
| 20260903070410 | 66 | 66 | 0.0 | 2.0 | 0.00 | 0.09 | 0.06 | 90 | 1013.7 |
| 20260903065908 | 66 | 197 | 0.0 | 2.0 | 0.00 | 0.09 | 0.05 | 90 | 1013.7 |
| 20260903064911 | 66 | 101 | 0.0 | 0.0 | 0.00 | 0.09 | 0.05 | 90 | 1013.6 |
| 20260903064408 | 66 | 203 | 0.0 | 3.0 | 0.00 | 0.09 | 0.05 | 90 | 1013.5 |
| 20260903063909 | 66 | 259 | 0.0 | 3.0 | 0.00 | 0.09 | 0.05 | 91 | 1013.4 |
| 20260903063410 | 66 | 154 | 0.0 | 1.0 | 0.00 | 0.09 | 0.05 | 91 | 1013.3 |
| 20260903062910 | 66 | 184 | 0.0 | 6.0 | 0.01 | 0.09 | 0.05 | 91 | 1013.3 |
| 20260903062407 | 66 | 205 | 0.0 | 6.0 | 0.01 | 0.09 | 0.05 | 91 | 1013.4 |
| 20260903061909 | 66 | 176 | 0.0 | 0.0 | 0.01 | 0.09 | 0.05 | 91 | 1013.3 |
| 20260903061333 | 66 | 166 | 0.0 | 4.0 | 0.01 | 0.09 | 0.05 | 91 | 1013.3 |
| 20260903060309 | 66 | 140 | 0.0 | 1.0 | 0.01 | 0.09 | 0.06 | 90 | 1013.3 |
| 20260903055817 | 65 | 221 | 0.0 | 3.0 | 0.01 | 0.09 | 0.06 | 90 | 1013.3 |
| 20260903055310 | 65 | 257 | 0.0 | 3.0 | 0.01 | 0.09 | 0.06 | 90 | 1013.1 |
| 20260903054312 | 66 | 220 | 0.0 | 7.0 | 0.01 | 0.09 | 0.06 | 90 | 1013.3 |
| 20260903053810 | 66 | 203 | 0.0 | 7.0 | 0.01 | 0.09 | 0.06 | 90 | 1013.5 |
| 20260903053311 | 66 | 193 | 0.0 | 4.0 | 0.01 | 0.09 | 0.05 | 90 | 1013.3 |
| 20260903052822 | 66 | 176 | 0.0 | 4.0 | 0.00 | 0.09 | 0.05 | 90 | 1013.4 |
| 20260903052307 | 66 | 222 | 0.0 | 4.0 | 0.00 | 0.09 | 0.05 | 90 | 1013.3 |
| 20260903051806 | 66 | 216 | 0.0 | 0.0 | 0.00 | 0.09 | 0.05 | 90 | 1013.4 |
| 20260903051238 | 66 | 203 | 0.0 | 5.0 | 0.00 | 0.09 | 0.05 | 90 | 1013.4 |
| 20260903050733 | 66 | 175 | 0.0 | 5.0 | 0.00 | 0.09 | 0.05 | 90 | 1013.4 |
| 20260903045711 | 67 | 201 | 0.0 | 7.0 | 0.00 | 0.09 | 0.05 | 90 | 1013.5 |
| 20260903045212 | 67 | 203 | 1.0 | 7.0 | 0.00 | 0.09 | 0.05 | 90 | 1013.5 |
| 20260903044706 | 67 | 209 | 1.0 | 5.0 | 0.00 | 0.09 | 0.05 | 90 | 1013.5 |
| 20260903044156 | 67 | 206 | 1.0 | 7.0 | 0.00 | 0.09 | 0.05 | 90 | 1013.4 |
| 20260903043633 | 67 | 43 | 1.0 | 5.0 | 0.00 | 0.09 | 0.05 | 90 | 1013.2 |
| 20260903043134 | 67 | 189 | 1.0 | 5.0 | 0.00 | 0.09 | 0.05 | 90 | 1013.2 |
| 20260903042110 | 67 | 196 | 0.0 | 5.0 | 0.00 | 0.09 | 0.05 | 90 | 1013.2 |
| 20260903041108 | 67 | 70 | 1.0 | 7.0 | 0.00 | 0.09 | 0.05 | 90 | 1013.3 |
| 20260903040610 | 66 | 248 | 1.0 | 6.0 | 0.00 | 0.09 | 0.05 | 91 | 1013.4 |
| 20260903040122 | 66 | 177 | 1.0 | 8.0 | 0.00 | 0.09 | 0.05 | 91 | 1013.4 |
| 20260903035619 | 66 | 205 | 0.0 | 8.0 | 0.00 | 0.09 | 0.05 | 91 | 1013.4 |
| 20260903035109 | 66 | 190 | 1.0 | 4.0 | 0.00 | 0.09 | 0.05 | 91 | 1013.4 |
| 20260903034538 | 66 | 196 | 1.0 | 4.0 | 0.00 | 0.09 | 0.05 | 91 | 1013.5 |
| 20260903034054 | 66 | 240 | 1.0 | 5.0 | 0.00 | 0.09 | 0.05 | 91 | 1013.4 |
| 20260903033544 | 66 | 224 | 1.0 | 5.0 | 0.00 | 0.09 | 0.05 | 91 | 1013.5 |
| 20260903033033 | 66 | 253 | 1.0 | 6.0 | 0.00 | 0.09 | 0.05 | 91 | 1013.5 |
| 20260903032522 | 66 | 91 | 0.0 | 6.0 | 0.00 | 0.09 | 0.05 | 91 | 1013.5 |
| 20260903031524 | 66 | 41 | 0.0 | 3.0 | 0.00 | 0.09 | 0.05 | 91 | 1013.6 |
| 20260903031012 | 66 | 210 | 1.0 | 3.0 | 0.00 | 0.09 | 0.05 | 91 | 1013.8 |
| 20260903030521 | 66 | 330 | 1.0 | 5.0 | 0.00 | 0.09 | 0.05 | 91 | 1013.8 |
| 20260903030007 | 66 | 219 | 1.0 | 8.0 | 0.00 | 0.09 | 0.05 | 91 | 1013.9 |
| 20260903025503 | 66 | 202 | 0.0 | 8.0 | 0.00 | 0.09 | 0.05 | 91 | 1013.8 |
| 20260903025013 | 66 | 150 | 0.0 | 6.0 | 0.00 | 0.09 | 0.05 | 91 | 1014.0 |
| 20260903024505 | 66 | 172 | 0.0 | 6.0 | 0.00 | 0.09 | 0.05 | 91 | 1013.9 |
| 20260903023933 | 66 | 182 | 0.0 | 6.0 | 0.00 | 0.09 | 0.05 | 91 | 1013.9 |
| 20260903023438 | 66 | 234 | 0.0 | 3.0 | 0.00 | 0.09 | 0.05 | 91 | 1014.0 |
| 20260903022937 | 66 | 219 | 0.0 | 3.0 | 0.00 | 0.09 | 0.05 | 91 | 1014.0 |
| 20260903022434 | 66 | 221 | 0.0 | 2.0 | 0.00 | 0.09 | 0.05 | 91 | 1014.1 |
| 20260903021931 | 65 | 231 | 0.0 | 2.0 | 0.00 | 0.09 | 0.05 | 91 | 1014.2 |
| 20260903021405 | 65 | 214 | 0.0 | 2.0 | 0.00 | 0.09 | 0.05 | 91 | 1014.1 |
| 20260903020907 | 65 | 255 | 1.0 | 7.0 | 0.00 | 0.09 | 0.05 | 91 | 1014.2 |
| 20260903020405 | 65 | 59 | 1.0 | 7.0 | 0.00 | 0.09 | 0.05 | 91 | 1014.2 |
| 20260903015849 | 65 | 65 | 1.0 | 7.0 | 0.00 | 0.09 | 0.03 | 91 | 1014.2 |
| 20260903015333 | 65 | 232 | 0.0 | 7.0 | 0.01 | 0.09 | 0.03 | 91 | 1014.3 |
| 20260903014837 | 65 | 56 | 1.0 | 5.0 | 0.01 | 0.09 | 0.03 | 91 | 1014.3 |
| 20260903014308 | 65 | 82 | 1.0 | 10.0 | 0.01 | 0.09 | 0.03 | 91 | 1014.4 |
| 20260903013822 | 65 | 41 | 0.0 | 10.0 | 0.01 | 0.09 | 0.03 | 91 | 1014.5 |
| 20260903013234 | 65 | 183 | 0.0 | 2.0 | 0.01 | 0.09 | 0.03 | 91 | 1014.4 |
| 20260903012211 | 65 | 221 | 1.0 | 12.0 | 0.01 | 0.09 | 0.03 | 91 | 1014.5 |
| 20260903011711 | 65 | 232 | 1.0 | 10.0 | 0.01 | 0.09 | 0.03 | 91 | 1014.6 |
| 20260903010708 | 65 | 72 | 0.0 | 7.0 | 0.01 | 0.09 | 0.03 | 91 | 1014.5 |
| 20260903010214 | 65 | 219 | 1.0 | 2.0 | 0.01 | 0.09 | 0.05 | 91 | 1014.6 |
| 20260903005711 | 65 | 268 | 0.0 | 7.0 | 0.02 | 0.09 | 0.05 | 91 | 1014.7 |
| 20260903005208 | 65 | 251 | 1.0 | 7.0 | 0.01 | 0.08 | 0.04 | 91 | 1014.6 |
| 20260903004215 | 64 | 266 | 0.0 | 8.0 | 0.01 | 0.08 | 0.04 | 91 | 1014.9 |
| 20260903003716 | 64 | 233 | 1.0 | 8.0 | 0.02 | 0.08 | 0.04 | 91 | 1014.9 |
| 20260903003207 | 64 | 231 | 1.0 | 8.0 | 0.02 | 0.08 | 0.04 | 92 | 1015.1 |
| 20260903002708 | 64 | 44 | 1.0 | 8.0 | 0.02 | 0.08 | 0.04 | 92 | 1015.2 |
| 20260903002207 | 64 | 254 | 0.0 | 6.0 | 0.02 | 0.08 | 0.04 | 92 | 1015.2 |
| 20260903001712 | 62 | 42 | 0.0 | 2.0 | 0.02 | 0.08 | 0.04 | 91 | 1015.4 |
| 20260903001209 | 62 | 84 | 0.0 | 4.0 | 0.02 | 0.08 | 0.04 | 91 | 1015.4 |
| 20260903000726 | 62 | 75 | 0.0 | 4.0 | 0.02 | 0.08 | 0.04 | 91 | 1015.4 |
| 20260903000211 | 62 | 65 | 0.0 | 0.0 | 0.02 | 0.08 | 0.03 | 91 | 1015.4 |
| 20260902235708 | 62 | 91 | 0.0 | 2.0 | 0.02 | 0.07 | 0.02 | 91 | 1015.4 |
| 20260902234713 | 62 | 66 | 0.0 | 0.0 | 0.03 | 0.07 | 0.02 | 91 | 1015.5 |
| 20260902234209 | 62 | 106 | 0.0 | 5.0 | 0.03 | 0.07 | 0.02 | 91 | 1015.5 |
| 20260902233709 | 62 | 68 | 0.0 | 5.0 | 0.02 | 0.06 | 0.01 | 90 | 1015.6 |
| 20260902233215 | 62 | 74 | 0.0 | 1.0 | 0.02 | 0.06 | 0.01 | 90 | 1015.7 |
| 20260902232710 | 62 | 84 | 0.0 | 5.0 | 0.02 | 0.06 | 0.01 | 90 | 1015.7 |
| 20260902231711 | 62 | 87 | 0.0 | 4.0 | 0.02 | 0.06 | 0.00 | 90 | 1015.9 |
| 20260902231206 | 62 | 60 | 0.0 | 5.0 | 0.02 | 0.06 | 0.00 | 90 | 1016.0 |
| 20260902230217 | 62 | 68 | 0.0 | 1.0 | 0.02 | 0.06 | 0.02 | 90 | 1016.2 |
| 20260902225710 | 62 | 63 | 0.0 | 7.0 | 0.02 | 0.06 | 0.02 | 90 | 1016.2 |
| 20260902225210 | 62 | 72 | 1.0 | 7.0 | 0.02 | 0.06 | 0.00 | 90 | 1016.4 |
| 20260902224713 | 62 | 75 | 0.0 | 5.0 | 0.00 | 0.04 | 0.00 | 89 | 1016.4 |
| 20260902224209 | 62 | 70 | 0.0 | 5.0 | 0.01 | 0.04 | 0.00 | 90 | 1016.4 |
| 20260902223710 | 63 | 60 | 0.0 | 5.0 | 0.01 | 0.04 | 0.00 | 90 | 1016.4 |
| 20260902223209 | 63 | 73 | 0.0 | 5.0 | 0.01 | 0.04 | 0.00 | 90 | 1016.4 |
| 20260902222709 | 63 | 72 | 1.0 | 11.0 | 0.01 | 0.04 | 0.00 | 90 | 1016.5 |
| 20260902222212 | 63 | 65 | 2.0 | 11.0 | 0.01 | 0.04 | 0.00 | 90 | 1016.5 |
| 20260902221712 | 62 | 113 | 3.0 | 11.0 | 0.01 | 0.04 | 0.00 | 90 | 1016.6 |
| 20260902221212 | 62 | 67 | 1.0 | 11.0 | 0.01 | 0.04 | 0.00 | 90 | 1016.6 |
| 20260902220712 | 62 | 179 | 1.0 | 10.0 | 0.01 | 0.04 | 0.00 | 91 | 1016.7 |